Location: Bats
(43.6587°N, 0.4584°W)
Time: 08:26:28
(UTC+00:00)

Cosmos 304 Rocket - Pass Details

Date: 12 January 2026
Orbit: 669 x 676 km, 74.0° (Epoch: 17 February)

Event Time Altitude Azimuth Distance (km) Brightness Sun altitude
Rises 17:10:47 0° 343° (NNW) 3,036 7.0 -4.6°
Reaches altitude 10° 17:13:08 10° 348° (NNW) 2,117 6.2 -5.0°
Maximum altitude 17:17:48 54° 66° (ENE) 822 3.9 -5.8°
Drops below altitude 10° 17:22:26 10° 144° (SE) 2,098 6.2 -6.6°
Sets 17:24:45 0° 149° (SSE) 3,007 7.0 -6.9°
